www.pogodaiklimat.ru

Погода и климат >> Архив погоды >> Мексика >> Mazatlan


ПОГОДА в Mazatlan

  • Прогноз погоды в Mazatlan
  • Монитор погоды в Mazatlan
  • Климат города

АРХИВ ПОГОДЫ в Mazatlan

Время (UTC), дата Ветер
(напр.,м/с)
 
Видим.   Явления Облачность Т
(С)
Тd
(С)
f
(%)
Тe
(С)
Тes
(С)
Комфортность P
(гПа)
Po
(гПа)
Тmin
(С)
Tmax
(С)
R
(мм)
R24
(мм)
S
(см)
03 14.11 СЗ 2 10 км ясно +25.0 +20.0 74 +31 +31 очень
душно
1013.3 1012.9
06 14.11 С 2 10 км ясно +24.0 +5.8 31 +24 +24 комфорт 1014.4 1013.9 +30.9
09 14.11 СВ 2 10 км ясно +22.8 +4.1 30 +23 +23 комфорт 1014.3 1013.8
12 14.11 СВ 2 10 км ясно +21.9 +4.0 31 +22 +22 комфорт 1014.5 1014.0 +21.3 +30.9
15 14.11 С 2 20 км ясно +23.2 +10.5 45 +25 +27 комфорт 1016.8 1016.3
18 14.11 СВ 2 20 км ясно +29.4 +10.1 30 +29 +40 жарко 1016.7 1016.3 +20.5 +30.1
21 14.11 З 2 20 км ясно +29.0 +13.8 39 +31 +39 жарко 1013.9 1013.5
00 15.11 С 2 20 км ясно +28.0 +14.2 43 +30 +30 жарко 1013.7 1013.2 +20.5 +32.5
03 15.11 СЗ 2 10 км ясно +23.9 +13.4 52 +26 +26 жарко 1014.5 1014.1
06 15.11 СЗ 2 10 км 1/0
[Ci sp]
+21.9 +10.8 49 +24 +24 комфорт 1014.4 1014.0 +32.5
09 15.11 СЗ 1 10 км ясно +19.4 +8.9 51 +21 +21 комфорт 1013.9 1013.4
12 15.11 С 1 10 км ясно +18.7 +5.2 41 +20 +20 1013.4 1013.0 +17.3 +32.5
15 15.11 С 1 10 км 4/0 2000 м
[Ac und]
+22.2 +11.3 50 +24 +26 комфорт 1013.5 1013.1
18 15.11 СЗ 1 20 км ясно +29.4 +12.3 35 +30 +43 жарко 1014.8 1014.3 +16.8 +31.2
21 15.11 З 2 20 км ясно +29.1 +10.8 32 +29 +38 жарко 1012.9 1012.5
00 16.11 СЗ 1 20 км ясно +27.2 +15.5 49 +30 +30 душно 1013.1 1012.7 +16.8 +31.7
03 16.11 С 1 10 км ясно +24.4 +15.3 57 +27 +27 жарко 1013.9 1013.4
06 16.11 С 1 10 км ясно +21.3 +15.7 70 +25 +25 комфорт 1014.0 1013.6 +31.7
09 16.11 С 1 10 км 1/0
[Cs]
+20.6 +13.9 65 +24 +24 комфорт 1013.8 1013.3
15 16.11 СЗ 1 20 км в посл. час туман 6/0
[Ci fib]
+21.0 +15.9 73 +26 +27 душно 1015.0 1014.6
18 16.11 Ю 1 20 км {туман} 3/0
[Ci fib]
+28.9 +18.9 55 +34 +46 очень
душно
1015.3 1014.8 +17.8 +29.5
21 16.11 З 1 20 км 3/0
[Cs]
+28.5 +21.3 65 +36 +45 очень
душно
1013.7 1013.2
03 17.11 СЗ 1 10 км 9/0
[Cs]
+23.9 +17.8 69 +28 +28 душно 1014.3 1013.8
15 17.11 С 1 20 км 9/0 2000 м
[Ac und Cs]
+20.6 +15.6 73 +25 +26 комфорт 1015.6 1015.1
18 17.11 СЗ 1 20 км 9/0
[Cs]
+26.2 +18.3 62 +31 +41 очень
душно
1016.0 1015.5 +18.6 +26.8
21 17.11 СЗ 2 20 км 9/0
[Cs]
+26.3 +18.0 60 +31 +38 душно 1014.1 1013.7
00 18.11 СЗ 2 20 км 9/0
[Cs]
+25.0 +16.0 57 +28 +28 жарко 1013.9 1013.5 +18.6 +28.1
03 18.11 С 1 10 км 4/0
[Cs]
+22.5 +15.7 65 +26 +26 жарко 1014.7 1014.2
06 18.11 С 1 10 км ясно +20.7 +15.2 71 +25 +25 комфорт 1015.5 1015.1 +18.6 +28.1
09 18.11 СЗ 1 10 км ясно +18.6 +14.3 76 +20 +20 1014.9 1014.4
12 18.11 С 1 10 км ясно +17.8 +14.4 80 +19 +19 1014.2 1013.8 +16.6 +28.1
15 18.11 С 1 20 км в посл. час туман 4/0
[Ci fib]
+20.6 +13.9 65 +24 +26 комфорт 1015.2 1014.7
18 18.11 ЮЗ 1 20 км {туман} 4/0
[Ci fib]
+28.1 +14.7 44 +31 +42 душно 1015.1 1014.6 +16.2 +29.2
21 18.11 З 2 20 км 5/0
[Cs]
+27.7 +17.5 54 +32 +40 очень
душно
1012.5 1012.0
00 19.11 СЗ 2 20 км 9/0
[Cs]
+26.2 +16.9 57 +30 +30 душно 1012.5 1012.0 +16.2 +30.0
03 19.11 С 1 10 км ясно +23.4 +16.6 66 +28 +28 душно 1013.6 1013.2
06 19.11 С 1 10 км 4/0
[Cs]
+21.4 +16.5 74 +25 +25 комфорт 1014.4 1014.0 +16.2 +28.1
09 19.11 С 1 10 км ясно +20.8 +15.0 69 +25 +25 комфорт 1014.6 1014.1
12 19.11 С 1 10 км ясно +19.7 +15.0 74 +23 +23 комфорт 1014.5 1014.0 +19.2 +30.0
15 19.11 С 1 20 км в посл. час туман 4/0
[Ci fib]
+21.5 +15.1 67 +25 +27 комфорт 1015.9 1015.5
18 19.11 ЮЗ 1 20 км {туман} 4/0 2000 м
[Ac trans Ci fib]
+26.4 +17.4 58 +31 +41 душно 1016.2 1015.7 +17.6 +27.5
21 19.11 ЮЗ 3 20 км 5/0 2000 м
[Ac trans Cs]
+26.2 +16.6 56 +30 +36 душно 1014.0 1013.5
00 20.11 С 2 20 км 8/0
[Cs]
+25.5 +16.4 57 +29 +29 душно 1013.2 1012.7 +17.6 +28.4
03 20.11 СЗ 1 10 км 5/0
[Cs]
+23.5 +15.5 61 +27 +27 душно 1014.0 1013.6
06 20.11 СЗ 1 10 км 9/0
[Cs]
+21.7 +13.7 60 +24 +24 комфорт 1014.2 1013.7 +28.4
09 20.11 С 1 10 км 5/0
[Ac trans Ci fib]
+20.2 +14.7 71 +24 +24 комфорт 1013.7 1013.2
12 20.11 С 1 10 км ясно +19.2 +14.8 76 +22 +22 комфорт 1012.6 1012.2 +17.8 +28.4
15 20.11 С 1 20 км 5/0
[Ci fib]
+21.4 +19 +21 1014.1 1013.6
18 20.11 З 3 20 км 8/0
[Cs]
+26.6 +17.9 59 +31 +38 душно 1014.4 1013.9 +17.5 +28.3
21 20.11 З 5 20 км 8/0
[Cs]
+28.0 +18.4 56 +33 +37 очень
душно
1013.5 1013.0

 

Местоположение метеостанции Mazatlan (Мексика): широта 23.20 долгота -106.40 высота над уровнем моря 4 м.

В архиве по умолчанию представлена погода в Mazatlan за последнюю неделю. Архивные данные за месяц целиком и за предыдущие месяцы, начиная с января 2011 года, Вы можете получить, выбрав интересующий диапазон дат из раскрывающегося списка и нажав кнопку "Ввод!".


*Определитесь, кто Вы:
робот инопланетянин человек

Внимание! Время в таблицах - всемирное. Для получения местного времени необходимо прибавить поправку, которая в Mazatlan равна -7 ч.

Смотрите также архив погоды в соседних городах и на ближайших метеорологических станциях:

Погода в Culiacan (Мексика) (205 км)
Погода в Durango (Мексика) (206 км)
Погода в Tepehuanes (Мексика) (248 км)
Погода в Tepic (Мексика) (249 км)
Погода в Sombrerete (Мексика) (290 км)
Погода в Huejucar (Мексика) (324 км)
Погода в Colotlan (Мексика) (344 км)
Погода в Torreon (Мексика) (399 км)
Погода в Zacatecas (Мексика) (402 км)
Погода в La Paz (Мексика) (412 км)

Пояснения к столбцам:

Ветер - указаны скорость ветра в м/с - средняя за 10 мин, порывы в срок и между сроками (в фигурных скобках) и направление, откуда дует ветер: С - северный, СВ - северо-восточный, В - восточный, ЮВ - юго-восточный, Ю - южный, ЮЗ - юго-западный, З - западный, СЗ - северо-западный.
Видимость - горизонтальная дальность видимости в метрах или километрах. При видимости от 1 до 10 км при отсутствии осадков обычно наблюдается дымка, при ухудшении видимости до 1 км и менее - туман. В сухую погоду видимость может ухудшаться дымом, пылью или мглою.
Явления - указаны атмосферные явления, наблюдавшиеся в срок или в последний час перед сроком; фигурными скобками обозначены явления, наблюдавшиеся между сроками (за 1-3 часа до срока); квадратными скобками обозначены град или гололедные отложения с указанием их диаметра в мм.
Облачность - указаны через наклонную черту общая и нижняя облачность в баллах и высота нижней границы облаков в метрах; квадратными скобками обозначены формы облаков: Ci - перистые, Cs - перисто-слоистые, Cc - перисто-кучевые, Ac - высококучевые, As - высокослоистые, Sc - слоисто-кучевые, Ns - слоисто-дождевые, Cu - кучевые, Cb - кучево-дождевые. Подробнее классификацию облаков см. в Атласе облаков (PDF).
T - Температура воздуха - температура, измеренная на высоте 2 м над землей.
Td - Температура точки росы - температура, при понижении до которой содержащийся в воздухе водяной пар достигнет насыщения.
f - Относительная влажность воздуха - влажноcть воздуха, измеренная на высоте 2 м над землей.
Te - Эффективная температура - температура, которую ощущает одетый по сезону человек в тени. Характеристика душности погоды. При расчете учитывается влияние влажности воздуха и скорости ветра на теплоощущения человека.
Tes - Эффективная температура на солнце - температура, которую ощущает человек, с поправкой на солнечный нагрев. Характеристика знойности погоды. Зависит от высоты солнца над горизонтом, облачности и скорости ветра. Ночью, в пасмурную погоду, а также при ветре 12 м/с и более поправка равна нулю.
P - Атмосферное давление - приведенное к уровню моря атмосферное давление.
Po - Атмосферное давление - измеренное на уровне метеостанции атмосферное давление.
Tmin - Минимальная температура - минимум температуры воздуха на высоте 2 м над землей.
Tmax - Максимальная температура - максимум температуры воздуха на высоте 2 м над землей.
R - Количество осадков - Количество выпавших осадков за период времени, мм. При наведении курсора мыши на число - период времени, за который выпало указанное количество осадков.
R24 - Количество осадков - Количество выпавших осадков за 24 часа, мм.
S - Снежный покров - Высота снежного покрова, см. При наведении курсора мыши на число - состояние снежного покрова и степень покрытия местности в баллах.